Wind_Speed
14 14 15 15 17 17 18 18 19 20 20 20 21 21 22 22 22 23 22 22 21 21 21 20 19 19 18 17 16 16 16 16 15 14 14 13 13 12 12 12 12 11 11 11 10 10 10 9 9
14 14 15 16 17 17 17 18 19 20 21 21 22 22 23 23 23 23 23 24 24 23 23 22 22 21 20 19 18 17 17 17 17 17 16 15 14 14 13 13 13 13 12 12 11 11 11 10 10
15 15 15 16 17 17 18 18 19 20 21 22 22 23 23 23 23 23 23 24 25 24 24 24 24 23 22 21 20 20 19 19 19 19 18 17 16 16 15 15 14 14 14 13 12 12 12 11 11
15 16 17 17 17 17 18 18 19 20 21 22 23 23 24 23 23 23 23 24 25 25 25 25 25 24 24 23 22 22 21 21 21 21 20 20 19 17 17 16 16 16 15 15 14 13 13 12 12
16 17 18 18 18 18 19 19 19 20 21 22 23 23 23 24 24 24 24 24 25 26 26 26 26 26 26 25 24 24 23 23 23 23 22 21 21 20 19 18 18 17 17 16 15 15 14 14 14
18 18 19 19 19 19 20 20 20 21 22 23 23 24 24 24 25 25 25 25 26 27 27 28 28 27 27 27 27 27 26 25 25 24 24 23 23 22 21 20 20 19 18 18 17 16 16 15 15
19 20 20 20 20 20 20 21 22 22 23 23 24 24 25 25 25 25 26 27 27 28 28 29 29 29 29 29 29 29 29 28 27 26 26 26 25 24 23 23 22 21 20 20 19 18 17 17 17
19 20 20 21 21 21 22 22 23 23 23 23 24 24 24 25 26 26 26 27 28 29 29 30 30 30 30 31 30 30 30 29 29 29 28 27 27 26 26 25 24 23 22 22 21 20 19 19 18
19 19 20 20 21 22 22 23 23 23 24 24 24 25 25 25 26 27 27 28 29 29 29 30 31 31 30 30 31 30 30 30 29 30 30 30 30 29 28 27 26 25 24 24 23 22 22 21 20
19 20 20 21 22 22 22 23 23 24 24 24 25 25 25 25 26 28 28 28 29 30 30 30 31 31 31 30 31 30 31 30 31 31 32 32 31 31 30 29 29 27 26 26 25 24 24 23 22
20 21 21 22 22 22 23 23 24 24 24 25 25 26 26 26 26 27 28 28 29 30 31 31 31 31 31 31 32 31 31 30 31 31 32 33 32 32 31 31 30 29 28 28 27 27 26 25 24
21 21 21 22 22 23 24 24 24 24 25 25 26 25 25 25 26 27 28 29 29 30 31 31 31 32 32 32 32 32 31 30 30 31 32 33 33 32 32 33 32 31 30 30 29 29 28 27 27
22 22 23 23 23 24 24 25 25 25 25 25 25 25 25 26 26 27 28 29 30 30 31 32 32 32 33 34 33 33 32 32 31 32 32 33 34 33 33 34 33 33 32 31 31 31 30 30 29
23 23 23 24 24 25 25 26 26 27 27 25 25 26 26 27 26 27 28 28 29 31 31 32 32 32 33 34 34 34 33 33 32 32 33 34 34 34 35 35 35 34 34 33 33 32 32 32 32
24 24 24 24 24 25 26 26 26 27 28 26 26 26 27 27 28 28 28 29 29 30 31 32 32 32 33 33 34 35 34 35 34 35 35 35 35 35 35 36 36 36 35 34 34 34 34 34 33
25 25 25 25 25 25 26 26 26 27 27 26 27 27 27 27 27 28 28 29 29 29 30 30 32 33 34 34 34 34 35 35 35 36 36 36 37 36 35 36 37 37 37 36 35 34 35 36 35
26 26 26 26 26 26 26 26 26 26 27 26 26 26 27 27 27 27 27 28 29 29 29 29 31 32 33 33 33 34 35 35 35 36 36 37 38 39 37 36 37 38 39 38 38 37 37 37 37
26 26 26 26 26 26 27 26 26 27 26 26 26 25 25 26 27 27 27 27 27 28 28 29 31 31 31 32 33 33 34 35 36 36 36 37 38 40 40 39 37 38 39 40 40 39 38 38 39
27 27 27 27 27 27 27 26 25 26 27 26 26 26 25 25 25 27 27 28 27 27 28 29 30 30 30 31 32 32 33 34 34 35 36 37 38 39 40 41 40 39 40 41 41 41 40 39 40
28 27 27 27 27 27 27 27 26 26 26 26 26 25 25 23 23 25 26 27 27 27 27 28 29 30 31 31 32 33 33 33 33 35 36 37 38 38 39 40 41 41 42 42 42 41 41 40 39
28 28 28 28 28 28 29 27 25 25 26 26 26 25 24 24 22 22 23 25 25 25 26 27 29 30 30 31 32 33 33 34 34 35 36 37 38 39 39 40 41 42 41 42 42 42 41 42 42
29 29 30 29 29 29 29 29 26 26 25 26 25 25 25 24 23 22 23 24 24 25 26 28 28 29 29 29 30 31 33 35 35 35 36 36 38 39 40 40 41 41 41 41 41 42 42 42 42
31 31 31 31 31 31 29 30 28 27 26 26 26 25 25 25 24 24 24 23 24 25 26 28 29 29 29 30 31 32 32 34 35 35 36 37 37 38 39 40 41 41 41 41 41 42 41 41 42
33 33 33 32 32 32 29 30 30 28 27 26 25 25 25 25 25 25 24 24 24 24 26 27 28 29 29 31 31 32 32 33 33 34 34 36 37 37 38 38 40 40 41 41 41 42 43 41 41
34 34 35 35 34 33 31 31 31 29 27 26 25 25 24 25 25 25 25 25 25 25 25 26 28 29 30 31 31 32 32 32 32 32 33 35 36 36 37 38 39 40 40 40 41 42 44 44 43
35 35 35 36 35 34 33 32 31 29 28 26 25 25 25 25 25 25 25 26 26 26 25 26 27 28 29 30 31 32 32 33 33 32 33 34 35 36 37 38 38 39 40 41 41 42 43 44 45
37 36 35 36 36 36 34 33 31 29 28 27 26 25 25 25 25 25 25 26 27 27 26 26 27 28 29 30 30 31 31 32 33 33 34 34 35 35 37 38 39 39 40 42 42 42 42 42 43
36 35 35 35 36 36 35 33 31 29 28 27 26 25 26 26 26 26 26 26 27 28 28 27 27 28 30 30 31 31 31 33 34 34 35 36 37 38 38 39 40 40 40 42 42 42 42 42 42
35 35 35 35 37 37 36 34 32 30 29 28 27 26 26 26 27 27 27 27 28 29 28 27 27 28 30 31 32 32 32 33 34 35 36 37 37 38 40 41 41 41 40 41 42 41 42 43 43
36 35 34 35 36 36 36 35 32 30 30 29 29 27 27 27 27 28 27 27 28 28 28 28 28 28 29 31 33 34 33 33 34 35 36 37 36 37 38 40 41 41 41 42 42 42 43 43 43
Wind_Direction
262 262 262 262 261 261 262 261 261 260 260 260 259 258 258 257 255 256 256 254 252 251 248 245 242 240 239 240 238 237 236 236 235 234 233 231 228 226 222 219 217 215 214 213 212 211 209 208 211
264 264 264 263 264 264 264 264 263 261 262 262 260 259 258 258 257 258 257 256 253 250 247 245 242 242 241 241 240 240 239 238 237 235 234 233 231 229 227 223 221 218 217 217 216 215 215 214 214
265 265 265 266 267 267 267 267 267 264 263 262 261 259 259 259 259 258 257 255 252 248 246 245 243 242 243 243 241 241 240 239 238 237 235 234 233 233 230 225 224 222 221 220 219 217 218 218 218
268 267 267 268 269 269 269 269 268 267 265 264 262 260 259 259 259 258 257 254 251 248 246 244 244 243 242 243 243 242 242 240 238 238 237 235 234 233 232 228 226 225 225 225 225 222 221 222 222
269 269 270 270 270 269 270 270 269 269 268 266 264 262 260 259 259 260 259 254 251 248 246 245 244 245 243 242 243 243 242 241 239 238 238 236 235 234 234 231 228 227 227 228 229 228 226 225 224
270 271 271 271 272 272 271 271 271 271 269 268 267 265 262 260 260 259 258 255 253 250 247 245 245 244 243 242 242 242 242 242 240 239 238 237 235 234 234 233 231 229 229 230 230 229 228 228 228
272 272 272 272 272 274 274 274 275 274 271 270 269 267 264 262 260 259 258 256 254 252 249 246 246 245 244 242 241 241 241 241 241 239 237 237 236 235 234 235 233 232 232 232 232 230 230 230 231
275 274 273 273 274 275 276 276 276 275 274 272 270 268 265 263 261 259 258 256 255 253 251 248 246 244 243 242 241 240 239 240 240 239 237 238 237 236 235 235 234 234 234 233 233 232 232 232 233
277 276 276 276 277 277 277 277 277 276 274 274 272 269 266 264 262 259 257 256 255 255 252 249 245 243 243 242 240 239 238 239 239 239 238 238 238 237 236 236 235 234 234 234 233 233 233 233 234
278 278 280 280 279 279 279 278 278 277 275 274 273 269 267 265 262 260 258 256 255 255 252 249 247 244 243 242 241 239 238 238 238 238 238 238 238 237 237 236 236 235 235 234 233 233 234 235 236
279 281 282 282 280 280 279 279 279 278 275 273 273 270 268 266 263 261 258 255 255 254 251 248 247 245 243 243 242 242 241 238 239 238 238 239 238 238 237 236 236 236 235 235 235 235 236 237 238
281 282 284 284 283 282 281 281 280 280 277 273 272 271 270 267 264 262 258 255 254 253 249 247 247 247 244 243 242 242 242 240 240 238 237 239 237 237 237 236 236 236 236 236 236 237 237 238 239
282 283 284 285 285 285 284 283 281 279 277 275 273 271 271 268 266 263 259 255 253 251 249 247 247 247 246 245 244 245 244 242 242 240 237 238 237 237 237 236 236 236 237 237 238 239 239 240 242
282 284 286 286 287 287 286 284 282 279 278 278 274 271 271 270 269 263 259 255 252 250 249 247 247 248 246 245 245 246 246 244 244 241 237 237 237 237 236 236 236 237 238 239 240 240 240 241 243
281 283 285 286 287 288 287 286 284 281 280 278 274 271 272 271 270 266 260 256 253 252 251 249 247 248 247 246 246 246 246 246 246 245 242 239 238 237 237 236 236 237 238 239 241 241 242 243 244
281 283 285 286 286 287 288 288 286 284 282 279 276 274 273 272 271 267 261 258 255 253 252 250 248 247 247 247 247 246 246 247 247 246 244 244 242 239 238 237 237 237 239 240 241 243 244 245 247
282 283 284 286 286 287 287 288 287 285 283 280 277 276 275 272 271 269 262 257 255 253 252 249 246 246 247 248 249 247 246 247 248 248 246 245 244 243 242 239 238 239 240 241 242 243 245 247 248
282 282 283 285 286 286 287 288 287 286 284 281 279 278 277 274 271 268 263 258 257 255 253 249 247 246 247 249 250 250 249 249 250 249 248 247 246 244 243 241 241 241 241 242 244 245 246 248 249
279 281 283 284 285 285 286 287 287 285 284 283 281 279 279 278 273 267 262 258 259 258 254 250 247 247 249 250 250 250 250 250 249 249 249 249 247 245 245 245 244 243 243 243 244 245 247 249 249
279 280 282 283 284 285 285 285 286 284 284 284 282 281 278 278 275 269 263 260 259 259 255 253 249 249 249 251 250 251 251 249 250 251 250 249 248 245 245 245 246 247 246 246 246 247 248 249 250
277 279 281 281 283 283 285 284 284 282 283 284 283 281 278 278 276 270 263 259 257 260 257 256 256 251 251 251 251 251 251 250 250 251 251 250 248 246 246 247 247 249 249 249 248 249 249 250 251
275 277 278 280 281 283 284 284 283 283 283 284 283 280 278 277 274 270 265 262 261 262 258 257 258 253 252 252 252 252 253 252 252 252 252 251 249 247 247 248 247 248 249 250 251 250 250 251 252
275 277 278 279 279 280 281 283 282 282 283 283 282 280 277 276 274 269 267 267 264 262 261 260 260 255 255 255 253 253 255 256 255 253 253 252 251 249 248 248 247 247 249 250 251 251 251 251 252
274 275 276 277 278 277 278 280 281 283 284 283 281 278 276 275 272 270 268 267 268 266 264 263 260 257 258 258 256 255 256 256 255 256 255 254 252 250 251 250 250 249 249 251 252 252 250 250 251
272 274 276 277 276 276 277 277 280 281 281 282 279 277 274 271 269 270 270 269 268 267 267 264 261 259 259 260 258 257 257 256 256 256 256 254 252 252 252 251 251 250 251 252 252 252 251 252 252
271 272 273 275 276 276 276 276 279 280 279 279 277 275 273 271 269 269 269 269 268 268 268 266 262 260 261 260 259 258 258 257 255 256 256 254 252 252 252 252 251 251 251 253 254 253 252 253 254
270 269 270 271 272 272 273 275 276 277 278 277 275 273 272 271 269 269 268 266 267 268 269 267 263 261 261 261 260 259 258 257 256 256 256 255 253 253 254 253 252 253 254 253 254 253 253 254 255
269 270 269 267 269 271 273 273 274 275 275 273 273 270 270 269 268 267 268 267 267 267 269 266 264 263 262 261 260 260 260 259 257 257 257 257 256 256 256 256 255 256 255 254 254 253 252 253 253
267 266 266 266 266 268 271 272 272 272 270 270 269 268 268 269 269 268 269 268 268 268 268 267 265 264 262 261 261 261 262 261 259 258 257 257 257 257 257 258 258 258 256 256 255 254 253 252 254
265 264 264 265 266 266 268 270 271 271 269 267 266 266 266 267 268 269 269 270 270 268 267 267 266 265 264 262 262 262 262 262 261 260 258 257 257 259 259 258 259 258 256 256 256 256 254 253 254
Height
5832 5832 5832 5833 5833 5833 5833 5833 5833 5833 5833 5833 5833 5833 5834 5835 5836 5838 5836 5835 5835 5836 5837 5837 5839 5840 5841 5842 5843 5844 5845 5846 5847 5848 5848 5849 5849 5850 5850 5851 5851 5852 5853 5853 5854 5854 5855 5856 5857
5828 5829 5829 5829 5829 5829 5829 5829 5829 5828 5828 5828 5828 5828 5829 5829 5830 5830 5830 5830 5830 5831 5832 5833 5834 5836 5837 5838 5839 5841 5842 5843 5844 5844 5845 5846 5847 5847 5848 5849 5849 5850 5851 5851 5852 5853 5854 5854 5855
5825 5825 5826 5825 5825 5825 5825 5825 5824 5823 5823 5823 5823 5823 5824 5824 5824 5824 5825 5824 5825 5826 5827 5828 5829 5831 5832 5834 5835 5837 5838 5839 5840 5841 5842 5843 5844 5845 5846 5846 5847 5848 5848 5849 5850 5851 5852 5852 5853
5822 5822 5822 5822 5821 5821 5820 5820 5819 5818 5818 5818 5818 5818 5818 5819 5819 5819 5819 5819 5820 5820 5822 5823 5824 5826 5827 5829 5830 5832 5833 5835 5836 5837 5838 5839 5841 5842 5842 5843 5844 5845 5846 5847 5848 5848 5849 5850 5851
5818 5818 5818 5817 5816 5816 5815 5815 5814 5813 5813 5813 5812 5812 5812 5813 5812 5813 5813 5813 5814 5815 5816 5818 5819 5821 5822 5824 5825 5827 5828 5830 5831 5833 5834 5835 5837 5838 5839 5840 5841 5842 5843 5844 5845 5846 5847 5848 5849
5814 5814 5813 5812 5812 5811 5810 5809 5809 5808 5807 5807 5806 5806 5806 5806 5806 5807 5807 5808 5808 5809 5810 5812 5813 5815 5816 5818 5819 5821 5823 5824 5826 5828 5829 5831 5832 5834 5835 5836 5837 5839 5840 5841 5842 5843 5844 5845 5846
5810 5809 5808 5808 5807 5806 5805 5804 5803 5802 5801 5801 5800 5800 5800 5800 5800 5800 5801 5801 5802 5803 5804 5805 5806 5808 5809 5810 5812 5814 5816 5818 5820 5822 5824 5826 5827 5829 5831 5832 5833 5835 5836 5837 5838 5840 5841 5842 5843
5804 5805 5803 5802 5802 5801 5800 5798 5797 5796 5795 5794 5794 5793 5793 5793 5793 5794 5794 5794 5795 5796 5797 5798 5799 5801 5802 5803 5805 5807 5809 5811 5814 5816 5818 5820 5822 5824 5825 5827 5829 5830 5832 5833 5834 5836 5837 5838 5839
5800 5800 5798 5797 5796 5795 5794 5792 5791 5790 5789 5788 5787 5787 5786 5786 5786 5786 5787 5787 5788 5789 5789 5790 5792 5793 5795 5796 5798 5800 5802 5804 5807 5809 5811 5813 5816 5818 5820 5822 5824 5825 5827 5829 5830 5832 5833 5834 5835
5795 5794 5793 5792 5791 5789 5788 5786 5785 5784 5783 5781 5780 5779 5779 5779 5779 5779 5779 5780 5781 5781 5782 5783 5785 5786 5788 5789 5791 5793 5795 5797 5800 5802 5804 5807 5809 5811 5813 5816 5818 5820 5822 5824 5825 5827 5828 5830 5831
5790 5789 5788 5786 5784 5783 5782 5780 5778 5777 5776 5775 5774 5773 5773 5772 5772 5772 5772 5772 5773 5774 5775 5776 5778 5779 5781 5783 5784 5786 5789 5791 5793 5795 5797 5800 5802 5804 5807 5809 5811 5814 5816 5818 5820 5822 5824 5825 5826
5784 5783 5782 5780 5779 5777 5776 5774 5772 5771 5770 5768 5767 5766 5766 5765 5765 5765 5764 5765 5766 5766 5767 5769 5771 5772 5774 5776 5778 5780 5782 5784 5785 5787 5790 5793 5795 5798 5800 5803 5805 5807 5810 5812 5814 5816 5818 5820 5821
5779 5777 5776 5774 5772 5771 5769 5767 5766 5765 5763 5761 5761 5760 5759 5758 5758 5757 5757 5757 5758 5759 5760 5762 5764 5766 5767 5769 5771 5773 5775 5777 5779 5781 5783 5785 5788 5791 5793 5796 5798 5801 5803 5806 5808 5810 5812 5814 5816
5773 5771 5769 5768 5766 5764 5763 5761 5760 5758 5756 5755 5754 5753 5752 5751 5750 5750 5749 5750 5750 5751 5752 5754 5756 5758 5760 5762 5764 5766 5768 5770 5772 5774 5776 5778 5781 5783 5786 5788 5791 5794 5796 5799 5801 5803 5806 5808 5810
5766 5765 5763 5762 5760 5758 5756 5755 5753 5751 5749 5748 5747 5746 5745 5743 5743 5742 5742 5742 5743 5743 5744 5746 5748 5750 5752 5754 5756 5759 5761 5763 5765 5766 5768 5770 5773 5775 5778 5780 5783 5786 5789 5791 5794 5796 5798 5801 5802
5760 5758 5757 5755 5753 5751 5751 5748 5746 5744 5742 5741 5740 5738 5737 5736 5735 5734 5734 5734 5735 5736 5737 5739 5740 5743 5745 5747 5749 5751 5753 5755 5757 5758 5760 5762 5764 5767 5770 5772 5775 5778 5781 5783 5786 5789 5791 5792 5794
5753 5752 5750 5749 5746 5744 5743 5741 5739 5737 5734 5733 5732 5731 5730 5729 5728 5727 5726 5726 5727 5728 5729 5731 5733 5735 5737 5739 5741 5743 5745 5747 5748 5750 5752 5754 5756 5758 5761 5764 5766 5769 5772 5775 5777 5780 5782 5784 5786
5747 5745 5743 5741 5739 5737 5735 5734 5732 5729 5727 5726 5725 5723 5722 5721 5720 5719 5719 5719 5719 5720 5721 5723 5725 5727 5730 5731 5733 5735 5737 5738 5740 5742 5744 5745 5747 5750 5752 5755 5758 5760 5763 5766 5768 5771 5773 5775 5777
5738 5737 5736 5734 5732 5729 5728 5726 5725 5722 5720 5719 5718 5716 5715 5714 5713 5712 5712 5712 5712 5713 5714 5716 5718 5720 5722 5724 5726 5728 5729 5730 5732 5734 5735 5736 5738 5741 5743 5746 5749 5751 5754 5756 5758 5761 5763 5765 5766
5731 5729 5728 5727 5724 5722 5720 5719 5718 5715 5713 5712 5710 5709 5708 5707 5706 5705 5705 5705 5706 5706 5707 5709 5711 5713 5714 5716 5718 5720 5721 5722 5724 5725 5726 5728 5729 5732 5734 5737 5739 5741 5744 5746 5749 5751 5753 5755 5756
5723 5722 5720 5719 5717 5714 5713 5712 5711 5709 5707 5705 5703 5702 5701 5700 5700 5699 5699 5699 5699 5700 5702 5703 5704 5706 5707 5708 5710 5711 5713 5714 5715 5716 5718 5719 5720 5722 5725 5727 5729 5731 5734 5736 5739 5741 5743 5745 5746
5715 5714 5712 5710 5709 5707 5706 5703 5705 5702 5701 5699 5697 5695 5694 5694 5694 5693 5693 5693 5693 5694 5695 5696 5696 5698 5699 5700 5702 5703 5705 5706 5707 5708 5709 5710 5711 5713 5715 5718 5720 5722 5724 5726 5728 5731 5732 5734 5736
5706 5705 5704 5702 5700 5699 5699 5696 5697 5696 5694 5692 5690 5689 5688 5688 5687 5688 5687 5688 5688 5688 5689 5689 5689 5690 5692 5693 5694 5695 5696 5697 5698 5698 5699 5701 5702 5704 5706 5708 5710 5712 5714 5716 5719 5720 5722 5724 5726
5697 5696 5695 5693 5692 5691 5692 5689 5688 5688 5687 5686 5684 5682 5681 5681 5681 5681 5681 5681 5682 5682 5682 5682 5682 5683 5684 5685 5686 5687 5688 5688 5689 5690 5691 5692 5693 5695 5696 5698 5700 5702 5704 5707 5709 5710 5712 5714 5716
5688 5687 5686 5684 5683 5683 5683 5681 5682 5681 5680 5678 5677 5676 5675 5675 5674 5674 5674 5675 5675 5675 5675 5675 5675 5676 5677 5677 5678 5679 5680 5680 5681 5681 5682 5683 5684 5686 5687 5689 5690 5693 5695 5696 5698 5700 5702 5704 5706
5678 5678 5678 5676 5675 5674 5674 5673 5675 5673 5672 5671 5670 5669 5668 5668 5668 5668 5668 5668 5668 5668 5668 5668 5668 5669 5669 5670 5670 5671 5671 5672 5673 5673 5674 5675 5676 5677 5678 5679 5681 5683 5685 5686 5688 5690 5692 5694 5696
5668 5667 5667 5666 5664 5664 5664 5665 5666 5665 5664 5663 5662 5662 5661 5661 5661 5661 5661 5661 5661 5661 5661 5661 5661 5661 5661 5661 5662 5662 5663 5663 5664 5665 5665 5666 5667 5668 5670 5671 5672 5673 5674 5676 5677 5679 5681 5683 5685
5657 5657 5656 5655 5654 5654 5655 5657 5658 5657 5656 5655 5655 5654 5654 5654 5654 5654 5654 5654 5654 5654 5653 5654 5653 5653 5653 5653 5653 5654 5654 5655 5655 5656 5657 5657 5658 5659 5661 5661 5662 5663 5664 5666 5667 5668 5670 5672 5674
5647 5646 5645 5645 5645 5645 5645 5649 5648 5648 5647 5647 5647 5647 5646 5647 5646 5647 5646 5646 5646 5646 5645 5645 5645 5645 5645 5645 5645 5645 5645 5646 5646 5647 5647 5648 5648 5650 5650 5651 5652 5652 5654 5655 5656 5658 5659 5661 5663
5635 5635 5636 5636 5636 5635 5636 5640 5638 5639 5638 5638 5639 5639 5639 5639 5639 5639 5639 5638 5638 5638 5637 5637 5637 5637 5637 5636 5636 5636 5636 5636 5636 5637 5637 5638 5638 5639 5640 5641 5641 5642 5643 5645 5646 5647 5648 5650 5652